TimeEDT,TemperatureF,Dew PointF,Humidity,Sea Level PressureIn,VisibilityMPH,Wind Direction,Wind SpeedMPH,Gust SpeedMPH,PrecipitationIn,Events,Conditions,WindDirDegrees,DateUTC
12:26 AM,57.2,55.4,94,30.06,7.0,NE,6.9,-,0.00,,Overcast,50,2012-10-10 04:26:00
12:38 AM,57.2,55.4,94,30.05,8.0,NE,5.8,-,0.00,,Overcast,50,2012-10-10 04:38:00
12:54 AM,57.9,55.0,90,30.05,8.0,ENE,6.9,-,0.00,,Overcast,60,2012-10-10 04:54:00
1:54 AM,57.9,55.9,93,30.04,8.0,NE,6.9,-,N/A,,Overcast,40,2012-10-10 05:54:00
2:54 AM,57.9,55.9,93,30.01,8.0,NE,6.9,-,N/A,,Overcast,40,2012-10-10 06:54:00
3:54 AM,57.9,55.9,93,29.99,8.0,NNE,4.6,-,N/A,,Overcast,30,2012-10-10 07:54:00
4:42 AM,57.2,55.4,94,29.99,8.0,NW,3.5,-,N/A,,Overcast,320,2012-10-10 08:42:00
4:54 AM,57.9,55.9,93,29.98,8.0,NNE,4.6,-,N/A,,Overcast,20,2012-10-10 08:54:00
5:33 AM,59.0,55.4,88,29.97,9.0,Calm,Calm,-,N/A,,Overcast,0,2012-10-10 09:33:00
5:54 AM,59.0,55.9,90,29.98,9.0,North,3.5,-,N/A,,Overcast,10,2012-10-10 09:54:00
6:54 AM,59.0,57.0,93,29.98,7.0,Calm,Calm,-,N/A,,Overcast,0,2012-10-10 10:54:00
7:11 AM,57.2,55.4,94,29.97,4.0,Calm,Calm,-,N/A,,Overcast,0,2012-10-10 11:11:00
7:45 AM,59.0,57.2,94,29.98,4.0,Calm,Calm,-,N/A,,Overcast,0,2012-10-10 11:45:00
7:54 AM,59.0,55.9,90,29.98,4.0,Calm,Calm,-,N/A,,Overcast,0,2012-10-10 11:54:00
8:11 AM,59.0,57.2,94,29.98,2.5,Calm,Calm,-,N/A,,Overcast,0,2012-10-10 12:11:00
8:44 AM,59.0,57.2,94,29.98,1.8,NW,4.6,-,0.00,,Light Drizzle,310,2012-10-10 12:44:00
8:54 AM,59.0,57.0,93,29.98,1.8,WNW,4.6,-,0.00,,Light Drizzle,300,2012-10-10 12:54:00
9:17 AM,59.0,57.2,94,29.97,2.0,Calm,Calm,-,0.00,,Overcast,0,2012-10-10 13:17:00
9:33 AM,59.0,57.2,94,29.97,3.0,Calm,Calm,-,0.00,,Light Drizzle,0,2012-10-10 13:33:00
9:54 AM,60.1,57.0,90,29.97,4.0,WSW,9.2,-,0.00,,Overcast,240,2012-10-10 13:54:00
10:02 AM,60.8,57.2,88,29.96,5.0,WSW,9.2,-,N/A,,Overcast,240,2012-10-10 14:02:00
10:16 AM,60.8,57.2,88,29.96,7.0,WSW,10.4,-,0.00,Rain,Light Rain,240,2012-10-10 14:16:00
10:42 AM,60.8,55.4,82,29.95,10.0,WSW,12.7,-,0.00,,Overcast,240,2012-10-10 14:42:00
10:54 AM,61.0,55.9,83,29.95,10.0,WSW,13.8,-,0.00,,Overcast,240,2012-10-10 14:54:00
11:31 AM,62.6,55.4,77,29.94,10.0,SW,8.1,-,N/A,,Mostly Cloudy,230,2012-10-10 15:31:00
11:54 AM,63.0,54.0,72,29.93,10.0,WSW,11.5,-,N/A,,Mostly Cloudy,250,2012-10-10 15:54:00
12:19 PM,64.4,53.6,68,29.93,10.0,WSW,13.8,-,N/A,,Mostly Cloudy,250,2012-10-10 16:19:00
12:54 PM,66.0,51.1,59,29.91,10.0,WSW,12.7,-,N/A,,Mostly Cloudy,240,2012-10-10 16:54:00
1:54 PM,68.0,48.0,49,29.88,10.0,WSW,18.4,-,N/A,,Scattered Clouds,240,2012-10-10 17:54:00
2:54 PM,68.0,46.0,45,29.86,10.0,WSW,16.1,-,N/A,,Scattered Clouds,250,2012-10-10 18:54:00
3:54 PM,68.0,44.1,42,29.85,10.0,West,12.7,21.9,N/A,,Scattered Clouds,260,2012-10-10 19:54:00
4:54 PM,66.9,41.0,39,29.86,10.0,West,15.0,-,N/A,,Partly Cloudy,280,2012-10-10 20:54:00
5:54 PM,64.9,43.0,45,29.86,10.0,West,12.7,-,N/A,,Partly Cloudy,260,2012-10-10 21:54:00
6:54 PM,64.0,43.0,46,29.88,10.0,West,10.4,-,N/A,,Scattered Clouds,260,2012-10-10 22:54:00
7:54 PM,63.0,46.0,54,29.90,10.0,SW,6.9,-,N/A,,Overcast,230,2012-10-10 23:54:00
8:54 PM,62.1,46.0,56,29.94,10.0,WNW,18.4,27.6,N/A,,Scattered Clouds,300,2012-10-11 00:54:00
9:54 PM,60.1,41.0,49,29.99,10.0,WNW,15.0,23.0,N/A,,Scattered Clouds,290,2012-10-11 01:54:00
10:54 PM,57.9,37.9,47,30.02,10.0,WNW,11.5,19.6,N/A,,Partly Cloudy,290,2012-10-11 02:54:00
11:54 PM,55.0,39.0,55,30.05,10.0,NW,6.9,-,N/A,,Partly Cloudy,310,2012-10-11 03:54:00